Zurück zum Katalog

STARLINK-31371

AktivKommunikationVLEO
NORAD 58940·PAYLOAD·🇺🇸 United States

Gestartet Feb 10, 2024 von Vandenberg Space Force Base

Loading…

Nächste Überflüge (nächste 24 Stunden)

TLE

AktuellSource: CelesTrak SupGP

Epoche: Sep 14, 2026, 22:43 UTC

1 58940C 24027K   26257.94701389 -.00041627  00000+0 -12299-2 0  2577
2 58940  53.1586 149.9346 0001336  80.8470 259.5863 15.34411219    12

Verfolge STARLINK-31371 in Echtzeit mit AllMySat

Download on the App Store